StationID,Date,MaxTemp,MinTemp,Precipitation,Snowfall,SnowDepth
"CA1NT000001","2014-10-07",,,0.00,0.00,0.00
"CA1NT000001","2014-10-08",,,0.00,0.00,0.00
"CA1NT000001","2014-10-09",,,0.00,0.00,0.00
"CA1NT000001","2014-10-16",,,0.00,0.00,0.00
"CA1NT000001","2014-10-17",,,25.00,30.00,30.00
"CA1NT000001","2014-10-18",,,25.00,5.00,10.00
"CA1NT000001","2014-10-31",,,0.00,0.00,20.00
"CA1NT000001","2014-11-01",,,18.00,0.00,0.00
"CA1NT000001","2014-11-02",,,0.00,0.00,0.00
"CA1NT000001","2014-11-03",,,0.00,0.00,0.00
"CA1NT000001","2014-11-04",,,,5.00,5.00
"CA1NT000001","2014-11-05",,,5.00,3.00,8.00
"CA1NT000001","2014-11-06",,,,5.00,13.00
"CA1NT000001","2014-11-07",,,,89.00,99.00
"CA1NT000001","2014-11-08",,,97.00,0.00,89.00
"CA1NT000001","2014-11-09",,,0.00,0.00,89.00
"CA1NT000001","2014-11-10",,,0.00,0.00,81.00
"CA1NT000001","2014-11-11",,,5.00,5.00,86.00
"CA1NT000001","2014-11-12",,,0.00,0.00,84.00
"CA1NT000001","2014-11-13",,,0.00,0.00,79.00
"CA1NT000001","2014-11-14",,,0.00,0.00,79.00
"CA1NT000001","2014-11-15",,,3.00,8.00,86.00
"CA1NT000001","2014-11-16",,,0.00,0.00,84.00
"CA1NT000001","2014-11-17",,,0.00,0.00,84.00
"CA1NT000001","2014-11-18",,,3.00,5.00,89.00
"CA1NT000001","2014-11-19",,,0.00,0.00,89.00
"CA1NT000001","2014-11-20",,,,5.00,91.00
"CA1NT000001","2014-11-21",,,25.00,41.00,119.00
"CA1NT000001","2014-11-22",,,0.00,0.00,119.00
"CA1NT000001","2014-11-23",,,,10.00,119.00
"CA1NT000001","2014-11-24",,,13.00,0.00,109.00
"CA1NT000001","2014-11-25",,,0.00,0.00,109.00
"CA1NT000001","2014-11-26",,,3.00,5.00,114.00
"CA1NT000001","2014-11-27",,,0.00,0.00,114.00
"CA1NT000001","2014-11-28",,,0.00,0.00,109.00
"CA1NT000001","2014-11-29",,,0.00,0.00,109.00
"CA1NT000001","2014-11-30",,,0.00,0.00,109.00
"CA1NT000001","2014-12-01",,,0.00,0.00,104.00
"CA1NT000001","2014-12-02",,,0.00,3.00,109.00
"CA1NT000001","2014-12-03",,,0.00,0.00,104.00
"CA1NT000001","2014-12-04",,,0.00,0.00,104.00
"CA1NT000001","2014-12-05",,,5.00,3.00,104.00
"CA1NT000001","2014-12-06",,,0.00,0.00,104.00
"CA1NT000001","2014-12-07",,,0.00,0.00,104.00
"CA1NT000001","2014-12-08",,,33.00,79.00,185.00
"CA1NT000001","2014-12-09",,,10.00,10.00,180.00
"CA1NT000001","2014-12-10",,,46.00,51.00,231.00
"CA1NT000001","2014-12-11",,,0.00,0.00,231.00
"CA1NT000001","2014-12-12",,,0.00,0.00,231.00
"CA1NT000001","2014-12-13",,,0.00,0.00,231.00
"CA1NT000001","2014-12-14",,,0.00,0.00,231.00
"CA1NT000001","2014-12-15",,,61.00,71.00,259.00
"CA1NT000001","2014-12-16",,,0.00,0.00,259.00
"CA1NT000001","2014-12-17",,,0.00,0.00,259.00
"CA1NT000001","2014-12-18",,,0.00,0.00,259.00
"CA1NT000001","2014-12-19",,,3.00,5.00,259.00
"CA1NT000001","2014-12-20",,,41.00,56.00,315.00
"CA1NT000001","2014-12-21",,,3.00,0.00,300.00
"CA1NT000001","2014-12-22",,,5.00,15.00,310.00
"CA1NT000001","2014-12-23",,,8.00,18.00,328.00
"CA1NT000001","2014-12-24",,,0.00,0.00,320.00
"CA1NT000001","2014-12-25",,,0.00,0.00,320.00
"CA1NT000001","2014-12-26",,,0.00,0.00,290.00
"CA1NT000001","2014-12-27",,,0.00,0.00,290.00
"CA1NT000001","2014-12-28",,,8.00,10.00,300.00
"CA1NT000001","2014-12-29",,,0.00,0.00,300.00
"CA1NT000001","2014-12-30",,,0.00,0.00,300.00
"CA1NT000001","2015-01-14",,,,,300.00
"CA1NT000001","2015-01-15",,,23.00,61.00,310.00
"CA1NT000001","2015-01-16",,,,51.00,
"CA1NT000001","2015-01-17",,,91.00,104.00,399.00
"CA1NT000001","2015-01-18",,,,5.00,399.00
"CA1NT000001","2015-01-19",,,10.00,10.00,409.00
"CA1NT000001","2015-01-20",,,0.00,0.00,409.00
"CA1NT000001","2015-01-21",,,0.00,0.00,399.00
"CA1NT000001","2015-01-22",,,99.00,76.00,
"CA1NT000001","2015-01-23",,,5.00,0.00,399.00
"CA1NT000001","2015-01-24",,,15.00,20.00,419.00
"CA1NT000001","2015-01-25",,,,5.00,419.00
"CA1NT000001","2015-01-26",,,20.00,25.00,445.00
"CA1NT000001","2015-01-27",,,18.00,30.00,429.00
"CA1NT000001","2015-01-28",,,0.00,0.00,424.00
"CA1NT000001","2015-01-29",,,0.00,0.00,419.00
"CA1NT000001","2015-01-30",,,0.00,0.00,419.00
"CA1NT000001","2015-01-31",,,0.00,0.00,409.00
"CA1NT000001","2015-02-01",,,8.00,8.00,414.00
"CA1NT000001","2015-02-02",,,5.00,5.00,419.00
"CA1NT000001","2015-02-03",,,0.00,0.00,419.00
"CA1NT000001","2015-02-04",,,0.00,0.00,419.00
"CA1NT000001","2015-02-05",,,0.00,0.00,414.00
"CA1NT000001","2015-02-06",,,0.00,0.00,409.00
"CA1NT000001","2015-02-07",,,13.00,10.00,419.00
"CA1NT000001","2015-02-08",,,64.00,46.00,429.00
"CA1NT000001","2015-02-09",,,0.00,0.00,429.00
"CA1NT000001","2015-02-10",,,13.00,10.00,439.00
"CA1NT000001","2015-02-11",,,0.00,0.00,434.00
"CA1NT000001","2015-02-12",,,0.00,3.00,434.00
"CA1NT000001","2015-02-13",,,0.00,0.00,429.00
"CA1NT000001","2015-02-14",,,10.00,10.00,439.00
"CA1NT000001","2015-02-15",,,0.00,0.00,439.00
"CA1NT000001","2015-02-16",,,0.00,0.00,439.00
"CA1NT000001","2015-02-17",,,0.00,0.00,439.00
"CA1NT000001","2015-02-18",,,0.00,0.00,439.00
"CA1NT000001","2015-02-19",,,0.00,0.00,439.00
"CA1NT000001","2015-02-20",,,0.00,0.00,439.00
"CA1NT000001","2015-02-21",,,8.00,15.00,455.00
"CA1NT000001","2015-02-22",,,0.00,0.00,450.00
"CA1NT000001","2015-02-23",,,5.00,5.00,455.00
"CA1NT000001","2015-02-24",,,0.00,0.00,450.00
"CA1NT000001","2015-02-25",,,0.00,0.00,450.00
"CA1NT000001","2015-02-26",,,3.00,5.00,455.00
"CA1NT000001","2015-02-27",,,3.00,5.00,455.00
"CA1NT000001","2015-02-28",,,8.00,8.00,450.00
"CA1NT000001","2015-03-01",,,0.00,0.00,439.00
"CA1NT000001","2015-03-02",,,20.00,20.00,351.00
"CA1NT000001","2015-03-03",,,0.00,0.00,351.00
"CA1NT000001","2015-03-04",,,0.00,0.00,351.00
"CA1NT000001","2015-03-05",,,0.00,3.00,351.00
"CA1NT000001","2015-03-06",,,13.00,15.00,361.00
"CA1NT000001","2015-03-07",,,15.00,15.00,371.00
"CA1NT000001","2015-03-08",,,0.00,0.00,371.00
"CA1NT000001","2015-03-09",,,0.00,0.00,361.00
"CA1NT000001","2015-03-10",,,0.00,0.00,361.00
"CA1NT000001","2015-03-11",,,0.00,0.00,361.00
"CA1NT000001","2015-03-12",,,43.00,30.00,371.00
"CA1NT000001","2015-03-13",,,23.00,61.00,429.00
"CA1NT000001","2015-03-14",,,0.00,0.00,409.00
"CA1NT000001","2015-03-15",,,0.00,0.00,371.00
"CA1NT000001","2015-03-16",,,0.00,0.00,361.00
"CA1NT000001","2015-03-17",,,0.00,0.00,351.00
"CA1NT000001","2015-03-18",,,0.00,0.00,351.00
"CA1NT000001","2015-03-19",,,0.00,0.00,351.00
"CA1NT000001","2015-03-20",,,0.00,0.00,351.00
"CA1NT000001","2015-03-21",,,0.00,0.00,351.00
"CA1NT000001","2015-03-22",,,0.00,0.00,340.00
"CA1NT000001","2015-03-23",,,0.00,0.00,340.00
"CA1NT000001","2015-03-24",,,0.00,0.00,340.00
"CA1NT000001","2015-03-25",,,0.00,0.00,340.00
"CA1NT000001","2015-03-26",,,0.00,0.00,340.00
"CA1NT000001","2015-03-27",,,0.00,0.00,330.00
"CA1NT000001","2015-03-28",,,0.00,0.00,330.00
"CA1NT000001","2015-03-29",,,0.00,0.00,330.00
"CA1NT000001","2015-03-30",,,0.00,0.00,330.00
"CA1NT000001","2015-03-31",,,3.00,10.00,340.00
"CA1NT000001","2015-04-01",,,0.00,0.00,340.00
"CA1NT000001","2015-04-02",,,0.00,0.00,340.00
"CA1NT000001","2015-04-03",,,0.00,0.00,340.00
"CA1NT000001","2015-04-04",,,0.00,0.00,340.00
"CA1NT000001","2015-04-05",,,0.00,0.00,340.00
"CA1NT000001","2015-04-06",,,0.00,0.00,340.00
"CA1NT000001","2015-04-07",,,0.00,0.00,340.00
"CA1NT000001","2015-04-08",,,0.00,0.00,330.00
"CA1NT000001","2015-04-09",,,0.00,0.00,330.00
"CA1NT000001","2015-04-10",,,0.00,0.00,279.00
"CA1NT000001","2015-04-11",,,0.00,0.00,249.00
"CA1NT000001","2015-04-12",,,0.00,0.00,221.00
"CA1NT000001","2015-04-13",,,0.00,0.00,211.00
"CA1NT000001","2015-04-14",,,0.00,0.00,211.00
"CA1NT000001","2015-04-15",,,20.00,25.00,239.00
"CA1NT000001","2015-04-16",,,0.00,0.00,221.00
"CA1NT000001","2015-04-17",,,0.00,0.00,201.00
"CA1NT000001","2015-04-18",,,0.00,0.00,130.00
"CA1NT000001","2015-04-19",,,0.00,0.00,99.00
"CA1NT000001","2015-04-20",,,0.00,0.00,71.00
"CA1NT000001","2015-04-21",,,0.00,0.00,0.00
"CA1NT000001","2015-04-22",,,0.00,0.00,0.00
"CA1NT000001","2015-04-23",,,0.00,0.00,0.00
"CA1NT000001","2015-04-24",,,0.00,0.00,0.00
"CA1NT000001","2015-04-25",,,0.00,0.00,0.00
"CA1NT000001","2015-04-26",,,0.00,0.00,0.00
"CA1NT000001","2015-04-27",,,0.00,0.00,0.00
"CA1NT000001","2015-04-28",,,0.00,0.00,0.00
"CA1NT000001","2015-04-29",,,0.00,0.00,0.00
"CA1NT000001","2015-04-30",,,0.00,0.00,0.00
"CA1NT000001","2015-05-01",,,64.00,0.00,0.00
"CA1NT000001","2015-05-02",,,0.00,0.00,0.00
"CA1NT000001","2015-05-03",,,0.00,3.00,0.00
"CA1NT000001","2015-05-04",,,0.00,0.00,0.00
"CA1NT000001","2015-05-05",,,0.00,0.00,0.00
"CA1NT000001","2015-05-06",,,0.00,0.00,0.00
"CA1NT000001","2015-05-07",,,0.00,0.00,0.00
"CA1NT000001","2015-05-08",,,0.00,0.00,0.00
"CA1NT000001","2015-05-09",,,0.00,0.00,0.00
"CA1NT000001","2015-05-10",,,0.00,0.00,0.00
"CA1NT000001","2015-05-11",,,0.00,0.00,0.00
"CA1NT000001","2015-05-12",,,0.00,0.00,0.00
"CA1NT000001","2015-05-13",,,0.00,0.00,0.00
"CA1NT000001","2015-05-14",,,0.00,0.00,0.00
"CA1NT000001","2015-05-15",,,0.00,0.00,0.00
"CA1NT000001","2015-05-16",,,3.00,0.00,0.00
"CA1NT000001","2015-05-17",,,0.00,0.00,0.00
"CA1NT000001","2015-05-18",,,0.00,0.00,0.00
"CA1NT000001","2015-05-19",,,0.00,0.00,0.00
"CA1NT000001","2015-05-20",,,0.00,0.00,0.00
"CA1NT000001","2015-05-21",,,0.00,0.00,0.00
"CA1NT000001","2015-05-22",,,18.00,0.00,0.00
"CA1NT000001","2015-05-23",,,0.00,0.00,0.00
"CA1NT000001","2015-05-24",,,0.00,0.00,0.00
"CA1NT000001","2015-05-25",,,0.00,0.00,0.00
"CA1NT000001","2015-05-26",,,0.00,0.00,0.00
"CA1NT000001","2015-05-27",,,0.00,0.00,0.00
"CA1NT000001","2015-05-28",,,0.00,0.00,0.00
"CA1NT000001","2015-05-29",,,0.00,0.00,0.00
"CA1NT000001","2015-05-30",,,0.00,0.00,0.00
"CA1NT000001","2015-05-31",,,0.00,0.00,0.00
"CA1NT000001","2015-06-01",,,41.00,0.00,0.00
"CA1NT000001","2015-06-02",,,0.00,0.00,0.00
"CA1NT000001","2015-06-03",,,3.00,0.00,0.00
"CA1NT000001","2015-06-04",,,0.00,0.00,0.00
"CA1NT000001","2015-06-05",,,0.00,0.00,0.00
"CA1NT000001","2015-06-06",,,0.00,0.00,0.00
"CA1NT000001","2015-06-07",,,0.00,0.00,0.00
"CA1NT000001","2015-06-08",,,0.00,0.00,0.00
"CA1NT000001","2015-06-09",,,0.00,0.00,0.00
"CA1NT000001","2015-06-10",,,0.00,0.00,0.00
"CA1NT000001","2015-06-11",,,0.00,0.00,0.00
"CA1NT000001","2015-06-12",,,0.00,0.00,0.00
"CA1NT000001","2015-06-13",,,0.00,0.00,0.00
"CA1NT000001","2015-06-14",,,0.00,0.00,0.00
"CA1NT000001","2015-06-15",,,30.00,0.00,0.00
"CA1NT000001","2015-06-16",,,0.00,0.00,0.00
"CA1NT000001","2015-06-17",,,0.00,0.00,0.00
"CA1NT000001","2015-06-18",,,0.00,0.00,0.00
"CA1NT000001","2015-06-19",,,0.00,0.00,0.00
"CA1NT000001","2015-06-20",,,0.00,0.00,0.00
"CA1NT000001","2015-06-21",,,0.00,0.00,0.00
"CA1NT000001","2015-06-22",,,0.00,0.00,0.00
"CA1NT000001","2015-06-23",,,0.00,0.00,0.00
"CA1NT000001","2015-06-24",,,0.00,0.00,0.00
"CA1NT000001","2015-06-25",,,0.00,0.00,0.00
"CA1NT000001","2015-06-26",,,0.00,0.00,0.00
"CA1NT000001","2015-06-27",,,0.00,0.00,0.00
"CA1NT000001","2015-06-28",,,0.00,0.00,0.00
"CA1NT000001","2015-06-29",,,0.00,0.00,0.00
"CA1NT000001","2015-06-30",,,0.00,0.00,0.00
"CA1NT000001","2015-07-01",,,0.00,0.00,0.00
"CA1NT000001","2015-07-02",,,43.00,0.00,0.00
"CA1NT000001","2015-07-03",,,0.00,0.00,0.00
"CA1NT000001","2015-07-04",,,28.00,0.00,0.00
"CA1NT000001","2015-07-05",,,0.00,0.00,0.00
"CA1NT000001","2015-07-06",,,20.00,0.00,0.00
"CA1NT000001","2015-07-07",,,0.00,0.00,0.00
"CA1NT000001","2015-07-08",,,0.00,0.00,0.00
"CA1NT000001","2015-07-09",,,28.00,0.00,0.00
"CA1NT000001","2015-07-10",,,0.00,0.00,0.00
"CA1NT000001","2015-07-11",,,0.00,0.00,0.00
"CA1NT000001","2015-07-12",,,0.00,0.00,0.00
"CA1NT000001","2015-07-13",,,0.00,0.00,0.00
"CA1NT000001","2015-07-14",,,114.00,0.00,0.00
"CA1NT000001","2015-07-15",,,13.00,0.00,0.00
"CA1NT000001","2015-07-16",,,0.00,0.00,0.00
"CA1NT000001","2015-07-17",,,0.00,0.00,0.00
"CA1NT000001","2015-07-18",,,0.00,0.00,0.00
"CA1NT000001","2015-07-19",,,0.00,0.00,0.00
"CA1NT000001","2015-07-20",,,0.00,0.00,0.00
"CA1NT000001","2015-07-21",,,0.00,0.00,0.00
"CA1NT000001","2015-07-22",,,0.00,0.00,0.00
"CA1NT000001","2015-07-23",,,0.00,0.00,0.00
"CA1NT000001","2015-07-24",,,0.00,0.00,0.00
"CA1NT000001","2015-07-25",,,0.00,0.00,0.00
"CA1NT000001","2015-07-26",,,0.00,0.00,0.00
"CA1NT000001","2015-07-27",,,13.00,0.00,0.00
"CA1NT000001","2015-07-28",,,0.00,0.00,0.00
"CA1NT000001","2015-07-29",,,0.00,0.00,0.00
"CA1NT000001","2015-07-30",,,0.00,0.00,0.00
"CA1NT000001","2015-07-31",,,0.00,0.00,0.00
"CA1NT000001","2015-08-01",,,0.00,0.00,0.00
"CA1NT000001","2015-08-02",,,0.00,0.00,0.00
"CA1NT000001","2015-08-03",,,0.00,0.00,0.00
"CA1NT000001","2015-08-04",,,0.00,0.00,0.00
"CA1NT000001","2015-08-05",,,0.00,0.00,0.00
"CA1NT000001","2015-08-06",,,0.00,0.00,0.00
"CA1NT000001","2015-08-07",,,0.00,0.00,0.00
"CA1NT000001","2015-08-08",,,0.00,0.00,0.00
"CA1NT000001","2015-08-09",,,0.00,0.00,0.00
"CA1NT000001","2015-08-10",,,0.00,0.00,0.00
"CA1NT000001","2015-08-11",,,10.00,0.00,0.00
"CA1NT000001","2015-08-12",,,10.00,0.00,0.00
"CA1NT000001","2015-08-13",,,0.00,0.00,0.00
"CA1NT000001","2015-08-14",,,23.00,0.00,0.00
"CA1NT000001","2015-08-15",,,0.00,0.00,0.00
"CA1NT000001","2015-08-16",,,23.00,0.00,0.00
"CA1NT000001","2015-08-17",,,33.00,0.00,0.00
"CA1NT000001","2015-08-18",,,0.00,0.00,0.00
"CA1NT000001","2015-08-19",,,170.00,0.00,0.00
"CA1NT000001","2015-08-20",,,124.00,0.00,0.00
"CA1NT000001","2015-08-21",,,5.00,0.00,0.00
"CA1NT000001","2015-08-22",,,3.00,0.00,0.00
"CA1NT000001","2015-08-23",,,0.00,0.00,0.00
"CA1NT000001","2015-08-24",,,0.00,0.00,0.00
"CA1NT000001","2015-08-25",,,33.00,0.00,0.00
"CA1NT000001","2015-08-26",,,18.00,0.00,0.00
"CA1NT000001","2015-08-27",,,0.00,0.00,0.00
"CA1NT000001","2015-08-28",,,0.00,0.00,0.00
"CA1NT000001","2015-08-29",,,0.00,0.00,0.00
"CA1NT000001","2015-08-30",,,0.00,0.00,0.00
"CA1NT000001","2015-08-31",,,18.00,0.00,0.00
"CA1NT000001","2015-09-01",,,0.00,0.00,0.00
"CA1NT000001","2015-09-02",,,0.00,0.00,0.00
"CA1NT000001","2015-09-03",,,13.00,0.00,0.00
"CA1NT000001","2015-09-04",,,0.00,0.00,0.00
"CA1NT000001","2015-09-05",,,0.00,0.00,0.00
"CA1NT000001","2015-09-06",,,0.00,0.00,0.00
"CA1NT000001","2015-09-07",,,0.00,0.00,0.00
"CA1NT000001","2015-09-08",,,5.00,0.00,0.00
"CA1NT000001","2015-09-09",,,0.00,0.00,0.00
"CA1NT000001","2015-09-10",,,5.00,0.00,0.00
"CA1NT000001","2015-09-11",,,3.00,0.00,0.00
"CA1NT000001","2015-09-12",,,8.00,0.00,0.00
"CA1NT000001","2015-09-13",,,5.00,0.00,0.00
"CA1NT000001","2015-09-14",,,0.00,0.00,0.00
"CA1NT000001","2015-09-15",,,0.00,0.00,0.00
"CA1NT000001","2015-09-16",,,0.00,0.00,0.00
"CA1NT000001","2015-09-17",,,0.00,0.00,0.00
"CA1NT000001","2015-09-18",,,0.00,0.00,0.00
"CA1NT000001","2015-09-19",,,0.00,0.00,0.00
"CA1NT000001","2015-09-20",,,0.00,0.00,0.00
"CA1NT000001","2015-09-21",,,0.00,0.00,0.00
"CA1NT000001","2015-09-22",,,0.00,0.00,0.00
"CA1NT000001","2015-09-23",,,0.00,0.00,0.00
"CA1NT000001","2015-09-24",,,0.00,0.00,0.00
"CA1NT000001","2015-09-25",,,0.00,0.00,0.00
"CA1NT000001","2015-09-26",,,0.00,0.00,0.00
"CA1NT000001","2015-09-27",,,0.00,0.00,0.00
"CA1NT000001","2015-09-28",,,0.00,0.00,0.00
"CA1NT000001","2015-09-29",,,0.00,0.00,0.00
"CA1NT000001","2015-09-30",,,145.00,0.00,0.00
"CA1NT000001","2015-10-01",,,0.00,0.00,0.00
"CA1NT000001","2015-10-02",,,5.00,0.00,0.00
"CA1NT000001","2015-10-03",,,0.00,0.00,0.00
"CA1NT000001","2015-10-04",,,10.00,5.00,0.00
"CA1NT000001","2015-10-05",,,8.00,0.00,0.00
"CA1NT000001","2015-10-06",,,0.00,0.00,0.00
"CA1NT000001","2015-10-07",,,0.00,0.00,0.00
"CA1NT000001","2015-10-08",,,0.00,0.00,0.00
"CA1NT000001","2015-10-09",,,0.00,0.00,0.00
"CA1NT000001","2015-10-10",,,30.00,41.00,41.00
"CA1NT000001","2015-10-11",,,5.00,5.00,41.00
"CA1NT000001","2015-10-12",,,0.00,0.00,30.00
"CA1NT000001","2015-10-13",,,10.00,5.00,25.00
"CA1NT000001","2015-10-14",,,0.00,0.00,20.00
"CA1NT000001","2015-10-15",,,5.00,10.00,30.00
"CA1NT000001","2015-10-16",,,0.00,0.00,20.00
"CA1NT000001","2015-10-17",,,3.00,0.00,0.00
"CA1NT000001","2015-10-18",,,5.00,0.00,0.00
"CA1NT000001","2015-10-19",,,0.00,0.00,0.00
"CA1NT000001","2015-10-20",,,10.00,15.00,15.00
"CA1NT000001","2015-10-21",,,0.00,0.00,10.00
"CA1NT000001","2015-10-22",,,13.00,10.00,10.00
"CA1NT000001","2015-10-23",,,5.00,10.00,20.00
"CA1NT000001","2015-10-24",,,5.00,5.00,20.00
"CA1NT000001","2015-10-25",,,3.00,3.00,23.00
"CA1NT000001","2015-10-26",,,0.00,0.00,20.00
"CA1NT000001","2015-10-27",,,10.00,10.00,30.00
"CA1NT000001","2015-10-28",,,0.00,0.00,30.00
"CA1NT000001","2015-10-29",,,5.00,8.00,41.00
"CA1NT000001","2015-10-30",,,10.00,15.00,51.00
"CA1NT000001","2015-10-31",,,15.00,20.00,71.00
"CA1NT000001","2015-11-01",,,0.00,3.00,71.00
"CA1NT000001","2015-11-02",,,5.00,8.00,79.00
"CA1NT000001","2015-11-03",,,3.00,0.00,79.00
"CA1NT000001","2015-11-04",,,10.00,5.00,79.00
"CA1NT000001","2015-11-05",,,0.00,0.00,79.00
"CA1NT000001","2015-11-06",,,0.00,0.00,79.00
"CA1NT000001","2015-11-07",,,41.00,41.00,99.00
"CA1NT000001","2015-11-08",,,5.00,5.00,104.00
"CA1NT000001","2015-11-09",,,0.00,0.00,99.00
"CA1NT000001","2015-11-10",,,0.00,0.00,94.00
"CA1NT000001","2015-11-11",,,0.00,0.00,89.00
"CA1NT000001","2015-11-12",,,53.00,61.00,150.00
"CA1NT000001","2015-11-13",,,38.00,43.00,193.00
"CA1NT000001","2015-11-14",,,0.00,0.00,191.00
"CA1NT000001","2015-11-15",,,0.00,0.00,180.00
"CA1NT000001","2015-11-16",,,0.00,0.00,180.00
"CA1NT000001","2015-11-17",,,0.00,0.00,180.00
"CA1NT000001","2015-11-18",,,0.00,0.00,180.00
"CA1NT000001","2015-11-19",,,,10.00,191.00
"CA1NT000001","2015-11-20",,,,5.00,191.00
"CA1NT000001","2015-11-21",,,10.00,15.00,201.00
"CA1NT000001","2015-11-22",,,0.00,0.00,191.00
"CA1NT000001","2015-11-23",,,0.00,0.00,180.00
"CA1NT000001","2015-11-24",,,3.00,5.00,180.00
"CA1NT000001","2015-11-25",,,3.00,8.00,191.00
"CA1NT000001","2015-11-26",,,0.00,0.00,191.00
"CA1NT000001","2015-11-27",,,0.00,0.00,191.00
"CA1NT000001","2015-11-28",,,0.00,0.00,180.00
"CA1NT000001","2015-11-29",,,0.00,0.00,170.00
"CA1NT000001","2015-11-30",,,0.00,0.00,170.00
"CA1NT000001","2015-12-01",,,0.00,0.00,170.00
"CA1NT000001","2015-12-02",,,5.00,0.00,170.00
"CA1NT000001","2015-12-03",,,,10.00,180.00
"CA1NT000001","2015-12-04",,,0.00,0.00,180.00
"CA1NT000001","2015-12-05",,,13.00,41.00,211.00
"CA1NT000001","2015-12-06",,,,5.00,191.00
"CA1NT000001","2015-12-07",,,,20.00,211.00
"CA1NT000001","2015-12-08",,,,25.00,231.00
"CA1NT000001","2015-12-09",,,33.00,5.00,231.00
"CA1NT000001","2015-12-10",,,20.00,51.00,279.00
"CA1NT000001","2015-12-11",,,,15.00,269.00
"CA1NT000001","2015-12-12",,,0.00,0.00,269.00
"CA1NT000001","2015-12-13",,,,5.00,274.00
"CA1NT000001","2015-12-14",,,,8.00,279.00
"CA1NT000001","2015-12-15",,,,3.00,279.00
"CA1NT000001","2015-12-16",,,,79.00,330.00
"CA1NT000001","2015-12-17",,,30.00,10.00,300.00
"CA1NT000001","2015-12-18",,,0.00,0.00,300.00
"CA1NT000001","2015-12-19",,,0.00,0.00,300.00
"CA1NT000001","2015-12-20",,,0.00,0.00,300.00
"CA1NT000001","2015-12-21",,,,46.00,320.00
"CA1NT000001","2015-12-22",,,,30.00,351.00
"CA1NT000001","2015-12-23",,,0.00,0.00,330.00
"CA1NT000001","2015-12-24",,,,15.00,340.00
"CA1NT000001","2015-12-25",,,28.00,5.00,340.00
"CA1NT000001","2015-12-26",,,0.00,0.00,340.00
"CA1NT000001","2015-12-27",,,0.00,0.00,340.00
"CA1NT000001","2015-12-28",,,,3.00,340.00
"CA1NT000001","2015-12-29",,,0.00,0.00,340.00
"CA1NT000001","2015-12-30",,,0.00,0.00,340.00
"CA1NT000001","2015-12-31",,,0.00,0.00,340.00
"CA1NT000001","2016-01-01",,,0.00,0.00,330.00
"CA1NT000001","2016-01-02",,,0.00,0.00,330.00
"CA1NT000001","2016-01-03",,,0.00,0.00,330.00
"CA1NT000001","2016-01-04",,,0.00,0.00,330.00
"CA1NT000001","2016-01-05",,,0.00,0.00,320.00
"CA1NT000001","2016-01-06",,,0.00,0.00,320.00
"CA1NT000001","2016-01-07",,,0.00,0.00,320.00
"CA1NT000001","2016-01-08",,,0.00,0.00,310.00
"CA1NT000001","2016-01-09",,,0.00,0.00,310.00
"CA1NT000001","2016-01-10",,,0.00,0.00,310.00
"CA1NT000001","2016-01-11",,,0.00,0.00,310.00
"CA1NT000001","2016-01-12",,,13.00,30.00,340.00
"CA1NT000001","2016-01-13",,,,3.00,340.00
"CA1NT000001","2016-01-14",,,0.00,0.00,340.00
"CA1NT000001","2016-01-15",,,5.00,20.00,361.00
"CA1NT000001","2016-01-16",,,0.00,0.00,361.00
"CA1NT000001","2016-01-17",,,0.00,0.00,361.00
"CA1NT000001","2016-01-18",,,,15.00,371.00
"CA1NT000001","2016-01-19",,,,3.00,371.00
"CA1NT000001","2016-01-20",,,0.00,0.00,371.00
"CA1NT000001","2016-01-21",,,0.00,0.00,361.00
"CA1NT000001","2016-01-22",,,,28.00,386.00
"CA1NT000001","2016-01-23",,,,56.00,439.00
"CA1NT000001","2016-01-24",,,,10.00,409.00
"CA1NT000001","2016-01-25",,,25.00,0.00,409.00
"CA1NT000001","2016-01-26",,,0.00,0.00,399.00
"CA1NT000001","2016-01-27",,,,36.00,439.00
"CA1NT000001","2016-01-28",,,0.00,0.00,439.00
"CA1NT000001","2016-01-29",,,3.00,0.00,439.00
"CA1NT000001","2016-01-30",,,38.00,8.00,439.00
"CA1NT000001","2016-01-31",,,,10.00,450.00
"CA1NT000001","2016-02-01",,,5.00,0.00,439.00
"CA1NT000001","2016-02-02",,,0.00,0.00,409.00
"CA1NT000001","2016-02-03",,,0.00,0.00,409.00
"CA1NT000001","2016-02-04",,,0.00,3.00,399.00
"CA1NT000001","2016-02-05",,,0.00,0.00,399.00
"CA1NT000001","2016-02-06",,,,36.00,434.00
"CA1NT000001","2016-02-07",,,33.00,3.00,439.00
"CA1NT000001","2016-02-08",,,0.00,0.00,429.00
"CA1NT000001","2016-02-09",,,0.00,0.00,424.00
"CA1NT000001","2016-02-10",,,,8.00,429.00
"CA1NT000001","2016-02-11",,,0.00,0.00,429.00
"CA1NT000001","2016-02-12",,,0.00,0.00,429.00
"CA1NT000001","2016-02-13",,,,5.00,432.00
"CA1NT000001","2016-02-14",,,5.00,25.00,450.00
"CA1NT000001","2016-02-15",,,5.00,5.00,450.00
"CA1NT000001","2016-02-16",,,5.00,15.00,465.00
"CA1NT000001","2016-02-17",,,8.00,20.00,478.00
"CA1NT000001","2016-02-18",,,,8.00,470.00
"CA1NT000001","2016-02-19",,,,3.00,470.00
"CA1NT000001","2016-02-20",,,5.00,,470.00
"CA1NT000001","2016-02-21",,,0.00,0.00,460.00
"CA1NT000001","2016-02-22",,,0.00,0.00,460.00
"CA1NT000001","2016-02-23",,,0.00,0.00,460.00
"CA1NT000001","2016-02-24",,,0.00,0.00,460.00
"CA1NT000001","2016-02-25",,,0.00,0.00,460.00
"CA1NT000001","2016-02-26",,,0.00,0.00,460.00
"CA1NT000001","2016-02-27",,,0.00,0.00,450.00
"CA1NT000001","2016-02-28",,,0.00,0.00,450.00
"CA1NT000001","2016-02-29",,,0.00,0.00,450.00
"CA1NT000001","2016-03-01",,,0.00,0.00,439.00
"CA1NT000001","2016-03-02",,,0.00,0.00,439.00
"CA1NT000001","2016-03-03",,,0.00,0.00,439.00
"CA1NT000001","2016-03-04",,,0.00,0.00,439.00
"CA1NT000001","2016-03-05",,,0.00,0.00,439.00
"CA1NT000001","2016-03-06",,,0.00,0.00,439.00
"CA1NT000001","2016-03-07",,,0.00,0.00,429.00
"CA1NT000001","2016-03-08",,,15.00,36.00,465.00
"CA1NT000001","2016-03-09",,,0.00,0.00,460.00
"CA1NT000001","2016-03-10",,,3.00,5.00,460.00
"CA1NT000001","2016-03-11",,,3.00,0.00,460.00
"CA1NT000001","2016-03-12",,,5.00,0.00,460.00
"CA1NT000001","2016-03-13",,,0.00,0.00,450.00
"CA1NT000001","2016-03-14",,,0.00,0.00,450.00
"CA1NT000001","2016-03-15",,,0.00,0.00,445.00
"CA1NT000001","2016-03-16",,,0.00,3.00,450.00
"CA1NT000001","2016-03-17",,,5.00,5.00,445.00
"CA1NT000001","2016-03-18",,,3.00,5.00,450.00
"CA1NT000001","2016-03-19",,,0.00,0.00,445.00
"CA1NT000001","2016-03-20",,,0.00,0.00,439.00
"CA1NT000001","2016-03-21",,,0.00,0.00,439.00
"CA1NT000001","2016-03-22",,,0.00,0.00,439.00
"CA1NT000001","2016-03-23",,,0.00,0.00,439.00
"CA1NT000001","2016-03-24",,,0.00,0.00,429.00
"CA1NT000001","2016-03-25",,,0.00,0.00,429.00
"CA1NT000001","2016-03-26",,,0.00,0.00,429.00
"CA1NT000001","2016-03-27",,,0.00,0.00,419.00
"CA1NT000001","2016-03-28",,,0.00,0.00,409.00
"CA1NT000001","2016-03-29",,,0.00,0.00,409.00
"CA1NT000001","2016-03-30",,,0.00,0.00,409.00
"CA1NT000001","2016-03-31",,,0.00,0.00,399.00
"CA1NT000001","2016-04-01",,,0.00,0.00,399.00
"CA1NT000001","2016-04-02",,,0.00,0.00,399.00
"CA1NT000001","2016-04-03",,,0.00,0.00,399.00
"CA1NT000001","2016-04-04",,,0.00,0.00,399.00
"CA1NT000001","2016-04-05",,,5.00,20.00,409.00
"CA1NT000001","2016-04-06",,,0.00,0.00,409.00
"CA1NT000001","2016-04-07",,,0.00,0.00,399.00
"CA1NT000001","2016-04-08",,,0.00,0.00,399.00